TimeMDT,TemperatureF,Dew PointF,Humidity,Sea Level PressureIn,VisibilityMPH,Wind Direction,Wind SpeedMPH,Gust SpeedMPH,PrecipitationIn,Events,Conditions,WindDirDegrees,DateUTC
12:53 AM,42.8,39.2,87,30.25,10.0,NNW,4.6,-,N/A,,Overcast,330,2011-10-09 06:53:00
1:53 AM,42.1,37.9,85,30.27,10.0,NNW,4.6,-,0.00,,Overcast,340,2011-10-09 07:53:00
2:53 AM,42.1,37.9,85,30.26,10.0,Calm,Calm,-,N/A,,Overcast,0,2011-10-09 08:53:00
3:44 AM,42.8,39.2,87,30.24,10.0,Calm,Calm,-,0.01,,Overcast,0,2011-10-09 09:44:00
3:53 AM,42.1,39.0,89,30.24,10.0,Calm,Calm,-,0.01,Rain,Light Rain,0,2011-10-09 09:53:00
4:53 AM,41.0,39.0,93,30.25,10.0,Calm,Calm,-,0.00,,Overcast,0,2011-10-09 10:53:00
5:53 AM,41.0,39.0,93,30.24,10.0,Calm,Calm,-,N/A,,Overcast,0,2011-10-09 11:53:00
6:53 AM,39.9,37.9,93,30.23,10.0,Calm,Calm,-,N/A,,Mostly Cloudy,0,2011-10-09 12:53:00
7:53 AM,41.0,37.9,89,30.21,10.0,Calm,Calm,-,N/A,,Overcast,0,2011-10-09 13:53:00
8:53 AM,42.1,37.9,85,30.19,10.0,ESE,3.5,-,N/A,,Scattered Clouds,110,2011-10-09 14:53:00
9:53 AM,43.0,37.9,82,30.19,10.0,South,4.6,-,N/A,,Mostly Cloudy,180,2011-10-09 15:53:00
10:53 AM,45.0,37.9,76,30.16,10.0,SSE,4.6,-,N/A,,Scattered Clouds,160,2011-10-09 16:53:00
11:24 AM,44.6,37.4,76,30.14,10.0,South,5.8,-,N/A,,Overcast,180,2011-10-09 17:24:00
11:53 AM,46.0,37.0,71,30.14,10.0,South,6.9,-,N/A,,Overcast,190,2011-10-09 17:53:00
12:53 PM,46.9,37.9,71,30.11,10.0,SSW,6.9,-,N/A,,Overcast,210,2011-10-09 18:53:00
1:53 PM,48.9,37.0,64,30.06,10.0,Variable,5.8,-,N/A,,Mostly Cloudy,0,2011-10-09 19:53:00
2:27 PM,48.2,37.4,66,30.05,10.0,South,6.9,-,N/A,,Mostly Cloudy,190,2011-10-09 20:27:00
2:53 PM,48.9,37.0,64,30.03,10.0,SSE,5.8,-,N/A,,Overcast,160,2011-10-09 20:53:00
3:53 PM,50.0,37.0,61,30.01,10.0,South,10.4,-,N/A,,Overcast,190,2011-10-09 21:53:00
4:53 PM,50.0,36.0,59,29.99,10.0,South,9.2,-,N/A,,Overcast,180,2011-10-09 22:53:00
5:53 PM,48.9,36.0,61,29.99,10.0,SSE,10.4,-,N/A,,Partly Cloudy,150,2011-10-09 23:53:00
6:53 PM,43.0,36.0,76,29.99,10.0,SE,4.6,-,N/A,,Clear,140,2011-10-10 00:53:00
7:53 PM,39.9,36.0,86,29.99,10.0,South,6.9,-,N/A,,Clear,190,2011-10-10 01:53:00
8:53 PM,37.9,36.0,93,29.98,10.0,SSE,6.9,-,N/A,,Clear,160,2011-10-10 02:53:00
9:53 PM,39.0,35.1,86,29.96,10.0,Calm,Calm,-,N/A,,Clear,0,2011-10-10 03:53:00
10:53 PM,37.9,36.0,93,29.95,10.0,Calm,Calm,-,N/A,,Clear,0,2011-10-10 04:53:00
11:53 PM,39.9,37.0,89,29.91,10.0,South,9.2,-,N/A,,Overcast,170,2011-10-10 05:53:00